TimeEDT,TemperatureF,Dew PointF,Humidity,Sea Level PressureIn,VisibilityMPH,Wind Direction,Wind SpeedMPH,Gust SpeedMPH,PrecipitationIn,Events,Conditions,WindDirDegrees,DateUTC
12:53 AM,39.9,36.0,86,30.27,10.0,Calm,Calm,-,N/A,,Clear,0,2013-04-30 04:53:00
1:53 AM,37.9,36.0,93,30.26,10.0,Calm,Calm,-,N/A,,Clear,0,2013-04-30 05:53:00
2:53 AM,36.0,34.0,93,30.26,9.0,Calm,Calm,-,N/A,,Clear,0,2013-04-30 06:53:00
3:53 AM,36.0,34.0,93,30.27,10.0,Calm,Calm,-,N/A,,Clear,0,2013-04-30 07:53:00
4:53 AM,34.0,33.1,96,30.27,9.0,Calm,Calm,-,N/A,,Clear,0,2013-04-30 08:53:00
5:53 AM,34.0,32.0,92,30.29,10.0,Calm,Calm,-,N/A,,Clear,0,2013-04-30 09:53:00
6:53 AM,36.0,35.1,97,30.31,8.0,Calm,Calm,-,N/A,,Clear,0,2013-04-30 10:53:00
7:53 AM,50.0,41.0,71,30.32,10.0,Calm,Calm,-,N/A,,Clear,0,2013-04-30 11:53:00
8:53 AM,54.0,33.1,45,30.33,10.0,Calm,Calm,-,N/A,,Clear,0,2013-04-30 12:53:00
9:53 AM,60.1,30.9,33,30.33,10.0,Variable,3.5,-,N/A,,Clear,0,2013-04-30 13:53:00
10:53 AM,62.1,32.0,32,30.33,10.0,SE,6.9,-,N/A,,Clear,140,2013-04-30 14:53:00
11:53 AM,63.0,28.0,27,30.32,10.0,SSE,9.2,-,N/A,,Clear,160,2013-04-30 15:53:00
12:53 PM,64.0,30.0,28,30.31,10.0,SE,10.4,-,N/A,,Clear,140,2013-04-30 16:53:00
1:53 PM,64.0,26.1,24,30.31,10.0,SE,10.4,-,N/A,,Clear,140,2013-04-30 17:53:00
2:53 PM,63.0,23.0,22,30.31,10.0,SE,15.0,19.6,N/A,,Clear,130,2013-04-30 18:53:00
3:53 PM,61.0,28.9,30,30.31,10.0,SE,12.7,-,N/A,,Clear,130,2013-04-30 19:53:00
4:53 PM,60.1,33.1,36,30.32,10.0,SE,8.1,-,N/A,,Clear,140,2013-04-30 20:53:00
5:53 PM,59.0,36.0,42,30.32,10.0,SE,6.9,-,N/A,,Clear,130,2013-04-30 21:53:00
6:53 PM,55.9,28.0,34,30.33,10.0,SE,8.1,-,N/A,,Clear,130,2013-04-30 22:53:00
7:53 PM,52.0,28.0,40,30.34,10.0,ESE,4.6,-,N/A,,Clear,120,2013-04-30 23:53:00
8:53 PM,50.0,32.0,50,30.36,10.0,Calm,Calm,-,N/A,,Clear,0,2013-05-01 00:53:00
9:53 PM,44.1,34.0,68,30.36,10.0,Calm,Calm,-,N/A,,Clear,0,2013-05-01 01:53:00
10:53 PM,41.0,35.1,79,30.36,10.0,Calm,Calm,-,N/A,,Clear,0,2013-05-01 02:53:00
11:53 PM,37.0,33.1,86,30.36,10.0,Calm,Calm,-,N/A,,Clear,0,2013-05-01 03:53:00